"Pseudo-MPEC" for P11Crlj

Created 2022 Dec 17 18:22:16 UT using Find_Orb

Click here for an explanation of pseudo-MPECs

 
 Astrometry: 
     P11Crlj  C2022 12 013!-BAstrometry_\#HXVf8MPRFJ)P:Y1Y'W4Uji3kCL'Ft_6KocUF52
     P11Crlj  C2022 12 01GdY+nredacted;xEMcYT@mc06Zw'#Ib#wZg'O+7Pop[cn'j1:xQ-F52
     P11Crlj* C2022 12 02;Cum$Rq@VnBj\J?gao6WQS2C7LAC3\_02Rhd#.tr+d.U]Op-e'8aF51
     P11Crlj  C2022 12 02$ayP\vclick=r['*goIkWC=bbKqEAR?Ij]0nxcx4_o,tvkEna#k$F51
     P11Crlj  C2022 12 02?S)7Shere)X+[P_Fx7/QKIF1wwV9BJy$?o-0HjB.FX8+$6vgforgF51
     P11Crlj  C2022 12 02G6h34ei'an(a0`ZYHj\lfD9D\xHLu6explanationnv\/n!SPbGXF51
     P11Crlj KC2022 12 17.20148204 37 13.883-01 50 30.19   ~CH5M 21.47GVNEOCPI52
     P11Crlj KC2022 12 17.20348504 37 13.717-01 50 26.99   ~CH5M 21.03GVNEOCPI52
     P11Crlj KC2022 12 17.20549004 37 13.494-01 50 24.86   ~CH5M 20.96GVNEOCPI52

Station data:
(F51) Pan-STARRS 1, Haleakala  (N20.707234 W156.255910)  US/Hawaii.
   Observers J. Bulger, T. Lowe, A. Schultz, M. Willman. Measurers K.
   Chambers, S. Chastel, T. de Boer, L. Denneau, J. Fairlamb, H. Flewelling,
   M. Huber, C.-C. Lin, E. Magnier, Y. Ramanjooloo, R. Wainscoat, R. Weryk.
   1.8-m Ritchey-Chrétien + CCD.
(F52) Pan-STARRS 2, Haleakala  (N20.707382 W156.255910)  US/Hawaii.
   Observers J. Bulger, T. Dukes, T. Lowe, A. Schultz, M. Willman. Measurers
   K. Chambers, S. Chastel, T. de Boer, L. Denneau, J. Fairlamb, H.
   Flewelling, M. Huber, C.-C. Lin, E. Magnier, Y. Ramanjooloo, R. Wainscoat,
   R. Weryk. 1.8-m Ritchey-Chrétien + CCD.
(I52) Steward Observatory, Mt. Lemmon Station  (N32.442544 W110.788920)
   US/Arizona.  Observers T. A. Pruyne, B. M. Africano, E. J. Christensen, G.
   A. Farneth, D. C. Fuls, A. R. Gibbs, A. D. Grauer, H. Gröller, J. A.
   Johnson, R. A. Kowalski, S. M. Larson, G. J. Leonard, D. Rankin, R. L.
   Seaman, F. C. Shelly, K. W. Wierzchoś. 1.0-m reflector + CCD.

Orbital elements:  P11Crlj
   Perihelion 2022 Oct 17.74281 +/- 1.72 TT = 17:49:38 (JD 2459870.24281)
Epoch 2022 Dec 17.0 TT = JDT 2459930.5   Earth MOID: 0.7243      AutoNEOCP
M  23.96424323 +/- 0.7              (J2000 ecliptic)
n   0.39769931 +/- 0.00154          Peri.  305.65734 +/- 0.9
a   1.83132806 +/- 0.00474          Node   101.10842 +/- 0.09
e   0.0923395 +/- 0.000418          Incl.   24.63422 +/- 0.12
P   2.48/905.19d           H 20.06  G  0.15   U  8.4
q 1.66222409 +/- 0.0036    Q 2.00043204 +/- 0.00589
From 9 observations 2022 Dec. 1-17; mean residual 0".24
Residuals in arcseconds: 
221201 F52  .04+  .03-    221202 F51  .08+  .11-    221217 I52  .03+  .36+    
221201 F52  .05-  .03+    221202 F51  .11-  .09+    221217 I52  .28+  .36+    
221202 F51  .03+  .01-    221202 F51  .00   .03+    221217 I52  .31-  .72-    

Ephemerides (geocentric):
Date (UTC) HH   RA             Dec           delta  r     elong  mag " sig PA
---- --------  ------------   ------------  ------ ------ -----  --- --------
2022 12 17 18  04 36 25.867   -01 35 43.47  .75179 1.6802 150.6 21.5 .356  62
2022 12 17 19  04 36 22.259   -01 34 36.35  .75188 1.6802 150.6 21.5 .382  63
2022 12 17 20  04 36 18.653   -01 33 29.19  .75198 1.6802 150.6 21.5 .409  63
2022 12 17 21  04 36 15.051   -01 32 22.00  .75207 1.6802 150.6 21.5 .436  64
2022 12 17 22  04 36 11.451   -01 31 14.78  .75217 1.6803 150.6 21.5 .463  64
2022 12 17 23  04 36 07.855   -01 30 07.53  .75226 1.6803 150.5 21.5 .490  65
2022 12 18 00  04 36 04.261   -01 29 00.25  .75236 1.6803 150.5 21.5 .517  65
2022 12 18 01  04 36 00.670   -01 27 52.93  .75245 1.6803 150.5 21.5 .545  65
2022 12 18 02  04 35 57.082   -01 26 45.58  .75255 1.6804 150.5 21.5 .573  66
2022 12 18 03  04 35 53.497   -01 25 38.20  .75265 1.6804 150.5 21.5 .601  66
2022 12 18 04  04 35 49.915   -01 24 30.79  .75275 1.6804 150.4 21.5 .629  66
2022 12 18 05  04 35 46.336   -01 23 23.35  .75285 1.6804 150.4 21.5 .657  66
2022 12 18 06  04 35 42.761   -01 22 15.87  .75294 1.6805 150.4 21.5 .686  67
2022 12 18 07  04 35 39.188   -01 21 08.37  .75304 1.6805 150.4 21.5 .714  67
2022 12 18 08  04 35 35.618   -01 20 00.83  .75314 1.6805 150.4 21.5 .743  67
2022 12 18 09  04 35 32.051   -01 18 53.27  .75324 1.6805 150.4 21.5 .772  67
2022 12 18 10  04 35 28.487   -01 17 45.67  .75334 1.6806 150.3 21.5 .801  67
2022 12 18 11  04 35 24.926   -01 16 38.04  .75344 1.6806 150.3 21.5 .830  68
2022 12 18 12  04 35 21.368   -01 15 30.38  .75355 1.6806 150.3 21.5 .860  68
2022 12 18 13  04 35 17.813   -01 14 22.69  .75365 1.6806 150.3 21.5 .889  68
2022 12 18 14  04 35 14.262   -01 13 14.97  .75375 1.6806 150.3 21.5 .919  68
2022 12 18 15  04 35 10.713   -01 12 07.22  .75385 1.6807 150.2 21.5 .949  68
2022 12 18 16  04 35 07.167   -01 10 59.44  .75396 1.6807 150.2 21.5 .979  68
2022 12 18 17  04 35 03.625   -01 09 51.63  .75406 1.6807 150.2 21.5 1.01  68
2022 12 18 18  04 35 00.085   -01 08 43.79  .75416 1.6807 150.2 21.5 1.04  69
2022 12 18 19  04 34 56.549   -01 07 35.92  .75427 1.6808 150.2 21.5 1.07  69
2022 12 18 20  04 34 53.016   -01 06 28.02  .75437 1.6808 150.2 21.5 1.10  69
2022 12 18 21  04 34 49.486   -01 05 20.09  .75448 1.6808 150.1 21.5 1.13  69
2022 12 18 22  04 34 45.959   -01 04 12.13  .75458 1.6808 150.1 21.5 1.16  69
2022 12 18 23  04 34 42.435   -01 03 04.15  .75469 1.6809 150.1 21.5 1.19  69
2022 12 19 00  04 34 38.915   -01 01 56.13  .75479 1.6809 150.1 21.5 1.23  69
2022 12 19 01  04 34 35.397   -01 00 48.08  .75490 1.6809 150.1 21.5 1.26  69
2022 12 19 02  04 34 31.883   -00 59 40.01  .75501 1.6809 150.0 21.5 1.29  69
2022 12 19 03  04 34 28.372   -00 58 31.90  .75512 1.6810 150.0 21.5 1.32  70
2022 12 19 04  04 34 24.864   -00 57 23.77  .75522 1.6810 150.0 21.5 1.35  70
2022 12 19 05  04 34 21.359   -00 56 15.61  .75533 1.6810 150.0 21.5 1.39  70
2022 12 19 06  04 34 17.858   -00 55 07.42  .75544 1.6810 150.0 21.5 1.42  70
2022 12 19 07  04 34 14.359   -00 53 59.21  .75555 1.6811 149.9 21.5 1.45  70
2022 12 19 08  04 34 10.864   -00 52 50.96  .75566 1.6811 149.9 21.5 1.48  70
2022 12 19 09  04 34 07.373   -00 51 42.69  .75577 1.6811 149.9 21.5 1.52  70
2022 12 19 10  04 34 03.884   -00 50 34.39  .75588 1.6811 149.9 21.5 1.55  70
2022 12 19 11  04 34 00.399   -00 49 26.06  .75599 1.6812 149.9 21.5 1.58  70
2022 12 19 12  04 33 56.917   -00 48 17.70  .75610 1.6812 149.8 21.5 1.62  70
2022 12 19 13  04 33 53.438   -00 47 09.31  .75622 1.6812 149.8 21.5 1.65  70
2022 12 19 14  04 33 49.963   -00 46 00.90  .75633 1.6812 149.8 21.5 1.68  71
2022 12 19 15  04 33 46.490   -00 44 52.46  .75644 1.6813 149.8 21.5 1.72  71
2022 12 19 16  04 33 43.022   -00 43 44.00  .75655 1.6813 149.8 21.5 1.75  71
2022 12 19 17  04 33 39.556   -00 42 35.50  .75667 1.6813 149.7 21.5 1.78  71